Weather History for Fort Smith, AR

Change the Weather History Date:

Wednesday, September 25, 2013

  Actual Average Record
Temperature  
Mean Temperature 73 °F 70 °F  
Max Temperature 86 °F 82 °F 97 °F (1939)
Min Temperature 59 °F 58 °F 38 °F (1989)
Degree Days  
Heating Degree Days 0 1  
Month to date heating degree days 0 8  
Since 1 July heating degree days 0 8  
Cooling Degree Days 8 6  
Month to date cooling degree days 364 254  
Year to date cooling degree days 2167 1949  
Growing Degree Days 22 (Base 50)    
Moisture  
Dew Point 59 °F    
Average Humidity 65    
Maximum Humidity 90    
Minimum Humidity 40    
Precipitation  
Precipitation 0.00 in 0.15 in 2.76 in (1959)
Month to date precipitation 0.93 3.35  
Year to date precipitation 35.80 32.71  
Sea Level Pressure  
Sea Level Pressure 29.83 in    
Wind  
Wind Speed 5 mph (WSW)    
Max Wind Speed 10 mph    
Max Gust Speed 15 mph    
Visibility 10 miles    
Events      
T = Trace of Precipitation, MM = Missing Value Source: NWS Daily Summary

Daily Weather History Graph

Daily Weather History Graph

Search for Another Location

Airport:

Trip Planner

Search our weather history database for the weather conditions in past years. The results will help you decide how hot, cold, wet, or windy it might be!

Date:

Astronomy

Sep. 25, 2013 Rise Set
Actual Time 7:07 AM CDT 7:09 PM CDT
Civil Twilight 6:42 AM CDT 7:34 PM CDT
Nautical Twilight 6:12 AM CDT 8:04 PM CDT
Astronomical Twilight 5:43 AM CDT 8:34 PM CDT
Moon 11:27 PM CDT (9/25) 1:02 PM CDT (9/25)
Length of Visible Light 12h 52m
Length of Day
12h 01m
Waning Gibbous, 64% of the Moon is Illuminated
Sep 25
Waning Gibbous
Sep 26
Last Quarter
Oct 4
New
Oct 11
First Quarter
Oct 18
Full

Hourly Weather History & Observations

Time (CDT) Temp. Heat Index Dew Point Humidity Pressure Visibility Wind Dir Wind Speed Gust Speed Precip Events Conditions
12:53 AM 64.0 °F - 57.9 °F 80% 29.84 in 10.0 mi Calm Calm - N/A   Clear
1:53 AM 63.0 °F - 57.0 °F 81% 29.84 in 10.0 mi WSW 5.8 mph - N/A   Clear
2:53 AM 63.0 °F - 57.0 °F 81% 29.83 in 10.0 mi WSW 4.6 mph - N/A   Clear
3:53 AM 61.0 °F - 57.0 °F 87% 29.83 in 10.0 mi West 5.8 mph - N/A   Clear
4:53 AM 61.0 °F - 57.0 °F 87% 29.84 in 10.0 mi West 4.6 mph - N/A   Clear
5:53 AM 61.0 °F - 57.0 °F 87% 29.85 in 10.0 mi WSW 3.5 mph - N/A   Clear
6:53 AM 60.1 °F - 57.0 °F 90% 29.86 in 10.0 mi WSW 6.9 mph - N/A   Clear
7:53 AM 61.0 °F - 57.9 °F 90% 29.87 in 10.0 mi WSW 5.8 mph - N/A   Clear
8:53 AM 66.0 °F - 57.9 °F 75% 29.88 in 10.0 mi WSW 4.6 mph - N/A   Clear
9:53 AM 70.0 °F - 59.0 °F 68% 29.89 in 10.0 mi WSW 5.8 mph - N/A   Clear
10:53 AM 75.9 °F - 60.1 °F 58% 29.89 in 10.0 mi West 4.6 mph - N/A   Clear
11:53 AM 78.1 °F - 57.9 °F 50% 29.87 in 10.0 mi WSW 9.2 mph - N/A   Clear
12:53 PM 81.0 °F 81.1 °F 57.9 °F 45% 29.86 in 10.0 mi Variable 4.6 mph - N/A   Clear
1:53 PM 82.9 °F 82.8 °F 59.0 °F 44% 29.83 in 10.0 mi Variable 4.6 mph - N/A   Clear
2:53 PM 84.0 °F 83.5 °F 57.9 °F 41% 29.81 in 10.0 mi SW 6.9 mph - N/A   Partly Cloudy
3:53 PM 86.0 °F 85.4 °F 59.0 °F 40% 29.79 in 10.0 mi West 9.2 mph - N/A   Clear
4:53 PM 84.9 °F 84.2 °F 57.9 °F 40% 29.78 in 10.0 mi SW 6.9 mph - N/A   Clear
5:53 PM 84.9 °F 84.2 °F 57.9 °F 40% 29.79 in 10.0 mi West 6.9 mph - N/A   Clear
6:53 PM 80.1 °F 80.6 °F 57.9 °F 47% 29.78 in 10.0 mi WSW 5.8 mph - N/A   Clear
7:53 PM 73.9 °F - 60.1 °F 62% 29.79 in 10.0 mi Calm Calm - N/A   Clear
8:53 PM 71.1 °F - 60.1 °F 68% 29.81 in 10.0 mi Calm Calm - N/A   Clear
9:53 PM 70.0 °F - 62.1 °F 76% 29.83 in 10.0 mi NE 3.5 mph - N/A   Clear
10:53 PM 69.1 °F - 62.1 °F 78% 29.84 in 10.0 mi ENE 4.6 mph - N/A   Clear
11:53 PM 68.0 °F - 62.1 °F 81% 29.84 in 10.0 mi ENE 5.8 mph - N/A   Clear